Location: Bodest
(46.3000°N, 22.5667°E)
Time: 20:05:53
(UTC+00:00)

Cosmos 389 Rocket - Pass Details

Date: 16 October 2021
Orbit: 439 x 468 km, 81.1° (Epoch: 29 November)

Event Time Altitude Azimuth Distance (km) Brightness Sun altitude
Rises 17:20:39 0° 210° (SSW) 2,415 6.4 -17.9°
Reaches altitude 10° 17:22:49 10° 220° (SW) 1,551 5.6 -18.3°
Maximum altitude 17:25:55 33° 286° (WNW) 766 4.2 -18.8°
Drops below altitude 10° 17:29:02 10° 353° (N) 1,568 5.3 -19.3°
Sets 17:31:15 0° 3° (N) 2,447 6.2 -19.7°
